Simultaneous Nadir Overpasses (SNOs) Predictions

Prediction of SNOs between FY3D and AQUA Satellite Orbit:

Table of predicted SNOs for the next 14.0 days since TLE Epoch: 11/22/2025
Index Date (FY3D) Time (FY3D) Lat,Lon (FY3D) SZA (FY3D ) Date (AQUA) Time (AQUA) Lat,Lon (AQUA) SZA (AQUA ) Distance(km) Time Diff (sec)
1 11/23/2025 23:20:17 -79.44, 3.19 80.06 11/23/2025 23:20:22 -79.44, 3.30 80.07 2.18 5
2 11/26/2025 08:00:10 79.48, 52.98 100.45 11/26/2025 08:01:05 79.48, 52.86 100.45 2.54 55
3 11/26/2025 08:50:49 -79.31,-138.23 79.74 11/26/2025 08:50:17 -79.31,-138.21 79.74 0.55 32
4 11/28/2025 17:30:43 79.38, -88.73 100.77 11/28/2025 17:31:00 79.39, -88.85 100.77 2.50 17
5 11/28/2025 18:21:21 -79.17, 80.28 79.45 11/28/2025 18:20:11 -79.17, 80.32 79.45 0.91 70
6 12/01/2025 02:10:40 -79.56, -40.28 78.65 12/01/2025 02:11:44 -79.55, -40.16 78.66 2.47 64
7 12/01/2025 03:01:17 79.31, 129.24 101.09 12/01/2025 03:00:55 79.32, 129.22 101.09 0.50 22
8 12/03/2025 11:41:12 -79.44, 178.23 78.43 12/03/2025 11:41:37 -79.44, 178.25 78.43 0.41 25
9 12/03/2025 12:31:48 79.15, -12.03 101.27 12/03/2025 12:30:47 79.16, -12.15 101.28 2.80 61
10 12/05/2025 20:21:08 79.58,-132.93 102.04 12/05/2025 20:22:19 79.57,-132.80 102.02 2.82 71



Historial Predications of SNOs between FY3D and AQUA
